Regional Weather Roundup
Issued by NWS

Home | Current Version | Previous Version | Text Only | Print | Product List | Glossary On
Versions: 1 2 3 4 5 6 7 8 9 10 11 12 13 14 15 16 17 18 19 20 21 22 23 24 25 26 27 28 29 30 31 32 33 34 35 36 37 38 39 40 41 42 43 44 45 46 47 48 49 50
000
ASUS42 KFFC 110710
RWRGA
WEATHER ROUNDUP FOR GEORGIA
NATIONAL WEATHER SERVICE PEACHTREE CITY GA
200 AM EST SUN DEC 11 2016

NOTE: "FAIR" INDICATES FEW OR NO CLOUDS BELOW 12,000 FEET WITH NO
SIGNIFICANT WEATHER AND/OR OBSTRUCTIONS TO VISIBILITY.

* = USE WITH CAUTION. THE STATIONS MARKED WITH AN ASTERISK MAY NOT
REPORT WEATHER SUCH AS PRECIPITATION, FOG, OR THUNDER AND ARE NOT
QUALITY CONTROLLED BY NWS.

THE REMARK "TC" DENOTES TEMPERATURE READING IN DEGREES CELSIUS.

GAZ001>058-110800-
NORTH GEORGIA

CITY           SKY/WX    TMP DP  RH WIND       PRES   REMARKS
ATLANTA        PTCLDY    36  22  56 SE6       30.39F WCI  31
ATHENS         CLEAR     28  22  78 E5        30.43F WCI  23
CHAMBLEE       CLEAR     34  19  54 CALM      30.40F
PEACHTREE CITY CLEAR     25  22  88 CALM      30.40F
ROME           CLEAR     25  20  81 N3        30.40F
WEST ATLANTA   CLEAR     28  22  78 CALM      30.40F
GAINESVILLE    CLEAR     31  20  63 E3        30.41F
CARTERSVILLE   CLEAR     25  21  85 CALM      30.41F


CITY           SKY/WX    TMP DP  RH WIND       PRES   REMARKS
DALTON*        CLEAR     27  23  86 CALM      30.40F
MARIETTA       CLEAR     31  20  64 E5        30.39S WCI  27
CANTON*        CLEAR     32  16  51 CALM      30.41S
$$

GAZ059>098-102>109-110800-
CENTRAL GEORGIA

CITY           SKY/WX    TMP DP  RH WIND       PRES   REMARKS
AUGUSTA-BUSH   CLEAR     27  23  85 CALM      30.47F
AUGUSTA-DANIEL CLEAR     36  21  54 E5        30.46F WCI  32
COLUMBUS       CLEAR     35  21  56 E7        30.39F WCI  29
MACON          CLEAR     29  27  92 CALM      30.43F
ROBINS AFB     CLEAR     30  26  86 CALM      30.43F


CITY           SKY/WX    TMP DP  RH WIND       PRES   REMARKS
LAGRANGE*      CLEAR     28  27  94 CALM      30.39S
SYLVANIA*      CLOUDY   N/A N/A N/A E6        30.46F
MILLEDGEVILLE* CLEAR     36  30  80 CALM      30.44S
$$

GAZ099>101-110>166-110800-
SOUTH GEORGIA

CITY           SKY/WX    TMP DP  RH WIND       PRES   REMARKS
SAVANNAH       CLOUDY    40  27  59 NE9       30.44F WCI  34
VALDOSTA       CLEAR     41  36  82 NE6       30.38S
ALMA           CLOUDY    41  30  65 VRB6      30.41S
ST SIMONS      PTCLDY    46  42  86 N7        30.37F
FT STEWART     CLOUDY    41  28  60 CALM      30.41S HAZE
ALBANY         CLOUDY    40  27  59 NE5       30.42F
HUNTER AFB     PTCLDY    42  32  69 NE9       30.40F
MOODY AFB      PTCLDY    42  32  68 NE6       30.37S
BRUNSWICK      CLEAR     45  41  87 N5        30.39S


CITY           SKY/WX    TMP DP  RH WIND       PRES   REMARKS
BAINBRIDGE*    MOCLDY    41  32  70 NE5       30.38S
MOULTRIE*      PTCLDY    41  32  70 NE3       30.39S
VIDALIA*       MOCLDY    37  32  81 NE6       30.45S WCI  33
WAYCROSS*      CLOUDY    45  36  72 NE6       30.39F
DOUGLAS*       MOCLDY    43  28  56 NE7       30.42S
$$




USA.gov is the U.S. government's official web portal to all federal, state and local government web resources and services.